STARLINK-38020, 69713

Orbit data source: Space-Track

STARLINK-38020, 69713 is a payload satellite owned by SpaceX/Seattle (US) in SSO that was launched on Sun, 28 Jun 2026 UTC via an FALCON 9 launch vehicle from the Air Force Western Test Range (AFWTR). Payload-class satellites include a variety of spacecraft equipped with specific instruments for various scientific and technological missions. These include communications satellites like Starlink; space stations such as the ISS; scientific satellites like the Hubble; Earth observation satellites from companies like Planet Labs, Umbra, and HawkEye 360; GPS; miniature CubeSats for education and research; and military/defense satellites.

Loading next visibility...
Identifier
69713, 2026-147K
Orbit
SSO
Country
Flag of USUS
Related business
Manufacturer
SpaceX/Seattle
Mission
Operational Commercial Communications
Bus & Motor
STARLINK V2MO, Unknown motor
Mass
575 kg wet, ~530 kg dry
Launch date (UTC)
2026-06-28 (2 months ago)
Launch vehicle
FALCON 9
Launch site
Air Force Western Test Range (AFWTR)
Object type
Payload
Rocket body
Debris
Shape & HBR
Box + 1 Pan, 17.7 m
Radar Cross Section
41.120 m², Large (>1 m²)

Expand to show TLE details & history
Last TLE update: 10 hours ago

TLE from 10 hours ago
0 STARLINK-38020
1 69713U 26147K   26237.07810320  .00022654  00000-0  70170-3 0  9994
2 69713  97.2824 273.8020 0000942  81.4659 278.6691 15.33455997 10180
Epoch: 2026-08-25T01:52Z
TLE epoch observation values (Epoch: 2026-08-25T01:52:28.116Z)
Latitude
0.00003°
Longitude
-87.66577°
Altitude
468.525 km
Speed
7.632 km/s
True Right ascension
18h 15m 12s
True Declination
0° 00' 00"
Sunlit
Object was in full shadow at epoch
Visualization orbit readout
Latitude
Unknown
Longitude
Unknown
Altitude
Unknown
Speed
Unknown
Apparent Right ascension
Unknown
Apparent Declination
Unknown
Sunlit
N/A
Visualization observer readout
Local Sidereal Time
03:26:43
Azimuth
Unknown
Elevation
Unknown
Doppler factor
Unknown
Orbital elements
Apogee altitude
463.097 km
Perigee altitude
461.809 km
Semi-major axis
6,840.59 km
Eccentricity
0.00009
Inclination
97.2824°
RAAN
273.802°
Arg. of periapsis
81.4659°
True anomaly
278.65843°
Mean anomaly
278.6691°
Eccentric anomaly
278.66376°
Mean motion
3.83621 °/min
Orbital period
93.84 mins
BSTAR
0.0007017
Loading maneuver chart data...
Computing Atmospheric mass density...
Loading historical data...
Loading historical data...
Loading historical data...
Loading historical data...
Loading historical data...
Loading historical data...
Loading historical data...

Documentation

Showing up to 5 results
|